QZS-4 (MICHIBIKI-4)

Last updated on Nov. 18, 2019, 4:21 a.m. UTC

1 42965U 17062A   19321.46994027 -.00000295  00000-0  00000+0 0  9995
2 42965  40.7890  14.4142 0749951 270.7480  79.0676  1.00262741  7718
UTC
Height (km)
Latitude
Longitude
Inclination
Orbital Period
UTC large
Height (km)
Speed (km/s)
/
Latitude / Longitude
Inclination (degrees)
Orbital Period (minutes)
Azimuth
Elevation
Range (km)
Doppler Factor
iOS Compass Heading
iOS Angle

Next 30 passes for location: Hong Kong

Rise time Rise Azimuth (degrees) Set time Set Azimuth (degrees) Duration Max altitude (degrees)

No matching passes for this satellites